Location: Hamlin Beach State Park
(43.3614°N, 77.9586°W)
Time: 03:31:34
(UTC-05:00)

Tiangong 2 - Visible Passes

Search period start: 18 November 2017 00:00
Search period end: 28 November 2017 00:00
Orbit: 386 x 391 km, 42.8° (Epoch: 18 November)

Date Brightness Start Highest point End Pass type
(mag) Time Alt. Az. Time Alt. Az. Time Alt. Az.
24 Nov 4.4 06:41:51 10° S 06:43:05 12° SE 06:44:20 10° ESE visible
26 Nov 3.8 06:20:50 10° SSW 06:23:15 20° SSE 06:25:41 10° ESE visible
27 Nov 4.1 05:23:48 10° S 05:25:15 13° SSE 05:26:42 10° ESE visible
